Theta_e
337 336 336 335 332 331 331 330 329 329 327 326 323 322 322 322 322 322 322 321 320 319 317 317 315 315 313 312 311 311 311 311 312 312 311 311 311 310 309 308 307 307 307 307 307 307 306 305 307 308 309 309 311 309 308 306 307 307 306 304 302 304 302 300 298 298 301 304 304 303 305 304 302 302 301 301 301 302 304 302 302 301 302 303 304
336 335 335 334 332 331 329 329 328 328 326 325 323 322 321 322 322 322 321 321 320 319 318 317 315 313 311 310 310 310 310 310 311 311 309 309 310 311 310 308 306 306 308 306 307 309 308 305 306 307 308 306 306 303 303 302 301 302 303 304 301 303 303 302 300 299 297 301 302 304 302 303 301 302 300 300 300 301 300 300 302 302 303 303 303
336 335 333 332 331 329 328 327 327 326 325 323 321 320 321 321 322 322 322 321 321 319 318 316 314 312 311 310 309 309 310 310 312 311 310 309 308 309 309 308 308 307 306 305 305 307 307 308 307 308 310 307 306 306 307 304 302 301 302 302 302 302 303 303 301 299 298 299 301 300 301 302 301 300 301 301 301 301 300 300 301 303 304 303 303
335 333 332 330 330 329 327 327 327 325 322 321 321 320 321 322 323 323 322 321 319 319 317 315 313 311 310 309 309 309 309 311 310 309 309 309 308 308 308 308 307 307 306 305 306 307 307 307 307 308 307 305 306 306 305 307 304 302 302 302 301 301 303 304 303 300 299 298 300 300 301 300 300 301 301 301 300 300 299 300 301 301 302 303 303
333 332 331 329 329 327 326 326 325 322 320 320 320 321 321 322 323 322 322 321 319 317 315 314 312 311 310 308 308 308 309 309 309 309 310 310 308 307 307 307 308 307 307 307 309 307 308 307 307 307 307 305 304 304 305 305 303 302 301 300 301 302 304 303 303 302 299 298 300 302 302 300 302 300 300 299 299 298 299 299 300 300 301 302 304
332 330 330 328 327 326 326 325 322 320 319 319 319 319 320 321 322 322 321 319 318 316 314 313 311 309 309 308 308 308 309 308 308 308 308 309 308 308 308 308 308 307 307 307 307 308 308 307 307 306 304 304 303 303 304 304 303 300 300 301 300 301 302 302 302 301 300 299 299 300 299 299 298 298 299 299 297 297 297 298 299 300 300 300 302
330 329 328 327 326 325 325 324 322 320 319 318 318 319 320 321 322 321 320 319 317 315 314 313 312 309 308 308 308 308 308 308 308 308 307 307 308 308 308 308 307 307 308 307 307 308 306 306 305 304 303 302 300 299 300 302 304 300 301 300 300 300 300 300 300 299 299 299 299 299 298 299 298 296 298 299 298 297 295 295 296 299 300 300 300
328 328 327 326 325 324 324 324 322 320 319 319 318 319 320 321 322 320 319 318 316 314 312 312 311 309 309 308 308 308 308 308 307 308 307 308 308 308 308 307 307 308 307 307 308 307 306 304 301 300 299 299 300 299 298 298 301 299 299 299 299 299 298 299 298 297 297 297 298 296 297 297 296 297 299 297 295 295 296 296 294 296 297 299 300
327 327 327 325 324 324 323 323 321 319 318 317 317 318 319 320 321 320 318 317 316 314 313 312 310 308 308 308 307 308 308 308 308 307 307 307 308 307 307 307 307 306 306 307 307 305 304 301 299 298 300 299 299 299 299 300 300 298 298 297 298 297 297 297 297 296 295 296 297 298 296 295 295 295 294 293 293 293 295 296 295 296 297 298 299
326 325 325 324 324 323 322 321 319 317 316 316 317 318 318 318 318 318 317 316 316 314 312 311 309 308 307 307 307 309 309 311 311 308 308 308 307 308 308 307 306 306 306 306 305 305 302 299 301 301 301 300 301 299 296 297 299 300 298 297 297 297 295 295 294 295 295 294 295 296 294 294 293 294 294 294 295 296 296 295 294 295 296 296 298
325 324 324 324 324 324 321 318 317 316 316 316 316 316 317 318 317 317 316 315 315 314 312 310 309 308 307 307 307 308 309 305 298 298 300 304 309 308 307 307 307 306 306 305 304 302 300 299 300 302 302 301 302 297 296 296 295 296 298 300 299 299 296 295 294 295 294 295 296 296 294 293 294 295 294 294 295 295 295 295 294 294 293 293 292
325 324 324 324 324 322 320 318 316 315 315 315 315 316 316 317 316 316 315 315 315 314 312 310 310 309 308 307 307 308 305 299 295 295 295 297 304 308 307 307 307 306 306 305 304 302 299 299 302 305 303 303 303 300 298 296 294 294 294 294 293 294 296 297 295 294 294 293 294 295 294 293 293 294 294 295 294 295 296 295 294 293 293 293 294
324 322 322 322 322 320 319 318 315 314 314 314 315 315 316 315 315 315 314 314 314 313 311 311 310 309 308 306 307 306 302 296 295 295 295 294 296 305 306 307 306 306 306 306 305 304 303 304 304 303 300 304 305 303 299 299 298 296 296 296 295 293 290 290 292 297 296 295 294 295 295 294 294 295 297 297 297 295 295 294 294 294 294 294 295
323 321 321 320 320 319 318 317 315 314 314 314 314 315 315 315 315 316 315 314 313 312 311 311 310 309 308 307 307 304 302 297 295 295 294 292 293 300 307 307 307 307 306 306 306 305 305 303 302 303 301 301 302 300 302 303 303 300 297 297 297 299 295 292 291 291 295 297 295 295 297 298 296 297 300 299 297 296 295 294 294 294 295 295 297
321 320 319 319 319 317 316 315 314 314 314 314 314 315 315 315 316 315 314 313 312 311 311 310 310 309 309 308 307 303 302 295 295 295 294 293 293 298 310 307 308 307 308 308 308 307 305 305 304 304 303 300 298 299 298 299 300 303 302 301 300 300 300 298 297 296 298 298 298 299 299 301 300 300 301 300 299 298 298 296 296 296 298 298 297
319 318 318 316 315 316 316 316 316 315 314 314 314 315 315 315 316 315 314 313 313 312 311 311 310 309 310 307 304 302 301 293 294 295 294 293 294 304 308 307 306 306 306 307 308 307 308 307 306 304 301 298 297 291 294 294 297 299 302 303 303 304 304 306 300 299 302 301 300 300 300 301 300 300 299 298 298 297 298 298 298 298 296 294 294
317 317 317 317 316 318 318 316 315 314 314 314 314 315 315 315 315 315 313 312 311 311 310 311 311 310 309 307 305 302 299 294 294 295 293 292 297 305 308 306 305 305 306 307 307 306 307 306 306 305 301 298 294 289 290 293 296 298 301 303 304 303 301 304 299 294 294 294 294 294 294 293 293 293 293 293 293 295 295 295 295 296 294 293 293
317 316 317 319 319 320 319 317 316 314 314 313 314 316 316 316 315 314 312 311 310 310 311 310 311 310 308 306 305 302 300 296 293 294 293 293 299 303 305 305 305 303 304 305 305 305 307 307 303 303 301 296 289 290 290 295 297 299 302 302 301 300 298 299 301 303 297 293 293 293 293 293 294 294 293 293 292 294 296 295 297 296 294 294 292
317 316 318 318 318 319 319 318 317 315 314 314 316 316 315 315 314 314 313 312 310 310 310 310 309 309 308 307 307 303 300 297 293 293 293 292 297 303 305 304 304 303 303 303 305 304 303 304 304 301 300 294 287 290 289 294 296 300 301 300 299 298 296 296 297 298 299 300 301 303 303 301 302 301 303 298 297 301 300 299 298 295 294 294 294
318 319 319 319 319 319 319 318 318 317 316 317 317 316 316 315 313 312 312 311 309 309 310 309 308 308 308 307 307 305 301 298 296 292 293 292 294 301 304 304 304 303 303 301 302 302 300 299 296 290 290 289 289 288 289 289 294 296 300 299 297 297 296 294 296 297 298 299 300 301 302 301 302 301 301 300 302 303 299 300 299 298 296 295 295
320 320 319 320 319 319 320 320 319 318 318 317 317 315 315 313 312 311 311 310 309 309 308 308 308 307 307 307 306 307 303 299 297 292 293 293 293 295 301 303 305 304 303 300 300 300 297 297 297 291 289 290 290 290 289 289 290 294 298 298 296 297 292 294 296 299 297 298 300 300 300 299 299 299 299 298 298 298 299 299 299 298 297 296 294
322 321 320 320 321 321 320 320 320 318 317 317 316 313 312 312 311 310 310 309 308 307 307 306 306 306 306 306 306 307 305 301 298 293 292 293 292 292 298 302 304 301 304 302 300 301 298 297 297 292 290 289 290 290 290 289 289 294 298 290 289 288 293 295 294 295 297 298 297 297 298 297 297 299 298 298 297 299 299 298 298 298 299 298 297
322 321 320 320 319 320 319 317 317 316 315 314 311 310 310 309 308 306 305 306 306 305 304 305 305 305 305 305 307 307 305 302 297 296 293 292 292 292 293 297 295 301 300 300 302 302 302 301 298 293 289 289 289 289 290 290 290 292 291 288 289 289 290 293 293 296 296 297 298 298 296 297 297 296 296 296 298 298 298 297 298 298 298 300 299
322 320 318 318 319 319 316 315 315 312 310 308 308 307 306 306 305 304 304 304 304 304 303 305 304 304 304 303 306 306 306 302 297 295 295 292 292 292 291 291 292 297 299 299 299 294 301 299 295 290 290 289 289 289 289 289 291 291 290 289 289 290 292 292 293 295 296 295 296 296 297 296 296 296 296 298 297 298 300 298 298 298 298 299 299
320 318 315 313 312 313 313 312 310 309 308 307 305 305 304 304 303 303 303 303 303 303 302 303 303 302 303 303 304 306 306 303 300 295 294 293 292 292 291 291 291 290 297 302 297 295 292 292 290 289 289 289 289 289 289 289 289 288 289 289 292 292 293 294 295 297 296 296 295 296 295 296 296 298 299 299 300 299 298 300 299 299 299 298 298
313 312 311 310 310 310 308 308 308 308 307 307 306 305 304 303 302 302 301 301 302 302 302 301 302 303 303 304 304 305 306 304 300 298 296 295 293 291 291 291 292 291 294 297 291 289 289 289 289 289 289 289 292 293 294 295 292 291 290 291 292 293 294 294 296 297 296 295 295 295 295 296 297 298 299 299 298 296 296 297 296 295 297 296 295
310 309 309 308 308 308 307 307 307 307 307 307 307 307 305 304 303 301 301 302 302 301 302 301 302 303 304 305 305 305 305 305 302 299 298 297 297 296 293 293 292 291 294 297 293 294 290 291 292 291 292 291 292 294 294 294 295 296 296 295 294 294 295 296 297 298 297 297 296 295 296 297 299 298 297 297 296 296 297 296 296 295 296 295 295
310 309 308 307 307 307 306 298 303 306 306 306 306 306 305 305 303 302 301 302 302 302 302 302 302 303 303 304 304 304 304 305 303 300 299 299 298 299 297 298 298 298 297 299 301 301 295 293 293 295 298 296 296 295 295 296 295 294 297 297 297 297 297 298 297 297 298 297 296 297 296 299 296 296 296 296 295 295 297 296 296 295 296 295 293
312 310 308 307 306 306 306 305 306 305 306 307 307 307 306 305 304 304 305 305 304 304 304 303 303 304 304 304 304 303 303 304 303 297 300 296 297 299 298 298 299 299 298 296 301 303 300 296 295 296 295 294 292 295 295 295 296 296 297 298 299 299 298 297 298 297 297 297 298 296 295 296 296 298 295 295 296 295 296 296 296 297 296 295 292
313 311 309 308 306 306 305 306 306 306 306 306 306 303 292 297 305 307 305 298 295 295 299 305 306 306 307 308 308 303 302 303 296 295 295 295 295 295 295 295 295 297 295 293 295 298 299 296 296 292 294 294 293 292 294 295 296 296 297 295 298 298 298 298 298 297 300 297 297 295 296 295 295 296 296 295 295 296 295 294 295 296 295 293 291
313 311 309 307 304 305 305 306 307 306 306 306 307 303 302 299 290 289 296 294 291 290 289 290 294 298 304 302 297 296 295 293 294 295 294 294 294 294 293 293 293 293 293 293 292 291 290 291 292 294 293 295 292 293 294 294 293 292 295 297 298 299 295 300 298 296 294 293 295 296 296 295 295 296 295 294 296 295 296 295 295 296 294 293 292
312 311 309 307 304 304 306 306 306 306 307 307 306 305 303 301 299 292 289 291 291 290 290 291 292 294 295 297 298 295 292 293 293 293 293 292 292 291 291 292 292 292 291 292 291 290 291 291 291 293 295 295 293 293 295 297 294 296 295 293 293 294 297 296 297 298 295 295 293 292 292 293 295 294 295 295 291 295 296 293 294 293 293 294 293
313 311 310 307 305 304 304 305 305 306 306 306 306 305 304 302 301 299 297 290 290 290 291 291 292 292 293 293 294 294 293 292 292 291 291 290 290 290 290 290 290 290 291 291 291 291 292 294 294 295 295 292 296 296 297 297 297 296 296 294 292 295 298 298 295 299 295 297 293 292 292 292 291 291 290 290 291 290 291 290 294 295 295 291 289
314 313 310 307 307 306 306 306 306 306 306 306 306 306 305 304 303 300 298 296 297 295 291 291 291 292 292 292 292 292 291 291 291 291 290 290 289 289 289 289 290 291 292 292 292 291 293 294 294 294 295 296 296 295 296 297 296 296 296 298 298 300 300 301 299 296 293 293 293 293 291 294 292 291 291 291 292 292 290 290 292 290 289 290 290
314 304 296 301 308 308 308 307 306 306 306 306 306 304 305 303 302 301 300 299 298 298 297 296 293 293 293 291 290 290 291 291 290 290 289 289 289 289 289 291 290 291 293 295 294 294 293 293 293 294 295 296 297 296 296 299 298 297 297 297 297 298 297 297 295 298 296 294 294 295 293 292 295 292 291 289 289 289 289 290 290 291 291 290 290
315 310 308 307 308 308 308 307 308 307 307 306 307 305 304 304 302 301 301 301 300 299 299 298 296 293 292 291 290 290 290 290 290 289 289 289 289 290 291 289 290 290 291 293 294 294 294 294 294 294 296 297 299 298 298 298 299 298 299 298 296 296 295 296 293 294 294 296 293 292 293 292 292 291 291 292 294 293 291 290 289 290 290 291 289
314 311 309 309 309 308 308 308 308 308 302 304 307 306 305 306 303 304 302 301 300 300 300 301 298 294 293 293 290 289 289 289 289 289 289 289 289 292 294 292 292 292 292 293 293 293 293 294 294 295 296 296 297 298 299 299 301 301 298 298 298 298 296 295 295 292 292 292 292 292 292 291 292 291 291 290 288 289 290 290 290 289 289 289 289
315 312 311 311 310 309 308 308 309 298 304 307 307 306 305 306 305 305 303 303 301 300 302 302 297 295 295 295 293 291 288 288 288 288 288 288 288 290 293 293 293 292 292 293 293 294 293 294 294 294 295 296 297 297 297 299 298 298 297 298 297 295 294 293 291 295 291 291 290 290 290 291 291 292 290 289 289 288 289 289 289 289 289 290 289
311 301 298 299 302 309 309 307 306 305 305 305 306 304 301 304 305 304 305 303 300 301 299 301 301 297 296 296 294 293 290 290 288 288 288 288 289 291 292 292 292 293 293 293 293 293 293 293 293 294 294 295 296 296 296 296 297 296 298 295 293 294 293 292 291 291 291 290 290 291 291 290 289 290 290 290 289 289 289 289 289 289 289 289 290
310 307 300 297 305 305 307 306 304 304 302 304 305 305 302 301 304 302 302 301 301 300 301 301 300 298 299 297 294 293 293 291 290 290 289 288 288 290 290 290 292 292 292 293 293 293 293 294 295 295 295 296 296 297 297 297 298 295 297 293 292 291 291 291 290 291 290 290 290 290 290 290 291 290 290 290 289 289 289 289 289 289 290 289 289
310 307 298 299 301 305 304 303 303 303 303 302 303 304 304 303 303 301 302 301 301 300 301 301 302 302 300 295 293 292 295 294 293 293 292 291 290 290 290 291 291 291 291 292 292 293 294 295 295 296 296 296 297 297 297 297 296 294 294 292 291 291 291 291 291 290 290 290 290 290 291 291 290 290 290 289 291 291 290 290 290 289 289 289 289
308 305 305 305 302 304 304 301 303 303 303 303 303 304 301 301 303 303 300 301 299 299 300 300 301 301 297 293 292 292 296 296 295 294 295 294 293 293 292 293 294 294 293 293 294 294 295 294 295 295 294 293 295 296 295 296 295 294 293 293 292 291 291 291 290 290 290 290 290 290 290 291 290 290 290 291 290 291 291 290 289 290 290 290 290
308 307 307 304 305 305 303 303 303 303 303 302 303 299 300 301 301 302 300 300 300 299 300 300 300 300 296 291 291 290 295 297 293 295 296 295 295 295 295 296 297 298 297 297 296 296 296 294 293 294 293 294 297 293 292 292 292 292 292 292 292 292 291 291 290 290 290 290 290 291 291 290 290 290 290 289 290 290 290 291 291 290 289 289 289
307 307 305 304 305 305 304 305 303 302 303 299 299 300 300 303 302 301 302 301 301 300 300 299 299 298 295 292 290 292 296 297 296 296 296 295 296 296 297 298 298 299 299 299 298 298 296 294 293 293 295 295 296 297 297 296 295 292 291 291 291 291 291 292 292 292 292 291 292 291 291 292 291 290 290 290 291 291 290 290 290 289 289 288 289
310 307 306 305 305 306 305 304 304 304 301 299 301 302 299 303 302 301 301 302 298 299 298 297 298 297 294 295 294 295 296 296 294 295 295 296 297 297 298 298 299 299 299 298 299 299 297 295 294 292 292 294 296 297 298 300 300 298 294 293 292 292 292 292 292 292 292 291 291 291 291 290 290 290 290 290 290 290 290 289 289 289 289 289 288
309 308 306 305 304 303 304 304 301 303 301 301 302 302 301 303 302 301 300 300 300 299 299 299 298 296 295 295 294 293 295 296 295 296 296 297 297 299 299 299 299 299 298 297 298 299 297 296 294 293 292 292 295 296 298 299 300 301 301 300 298 296 297 297 295 292 292 292 293 292 291 291 291 291 291 290 290 290 289 289 289 289 288 289 289
312 309 307 307 305 303 303 304 302 302 302 301 301 301 301 301 302 300 298 300 300 298 298 299 298 297 296 296 295 294 295 294 294 294 296 298 298 298 298 299 298 299 298 299 299 298 297 296 295 294 292 291 294 298 298 297 297 296 299 298 299 300 300 296 295 294 295 295 294 293 292 291 291 291 291 291 290 290 289 289 289 289 289 289 288
311 308 306 305 305 304 304 304 302 297 302 301 301 301 300 300 301 299 300 299 299 298 299 299 299 299 297 298 297 296 295 296 296 295 297 298 299 299 299 299 296 296 297 298 298 297 295 295 296 294 292 292 291 294 296 297 298 299 299 300 295 290 287 288 297 297 293 293 295 293 293 292 292 291 291 290 289 290 289 290 289 289 289 289 289
308 308 307 307 305 305 304 303 302 301 302 301 300 300 299 300 301 300 299 299 299 299 300 299 299 299 299 299 297 297 297 297 297 298 298 298 299 300 299 298 296 297 295 294 296 297 297 297 295 295 294 293 294 295 297 297 298 299 299 293 286 285 286 287 289 290 290 291 292 293 293 293 291 290 290 290 289 289 289 289 289 289 288 288 288
309 308 307 307 306 305 305 304 303 303 302 301 301 300 299 300 300 299 300 300 300 299 299 299 298 298 298 298 297 298 298 297 298 298 299 299 298 298 298 298 298 297 295 295 295 296 296 295 297 294 294 296 296 298 297 298 299 295 290 287 284 285 286 285 285 284 287 289 292 291 292 292 291 291 291 291 291 290 290 289 288 288 287 287 288
307 307 307 306 306 305 305 304 302 302 302 301 301 300 299 300 300 299 299 299 299 298 298 299 299 298 298 298 297 298 297 297 297 297 296 296 297 297 297 297 297 298 297 297 297 296 296 297 296 295 295 293 296 298 295 291 288 286 285 284 284 284 284 285 286 284 284 285 289 289 290 290 290 290 289 290 290 290 289 288 287 287 287 287 287
Wind_Speed
11 10 9 11 13 12 11 11 10 11 12 11 10 10 9 9 8 7 6 6 7 7 7 7 7 6 6 6 6 5 5 5 4 4 4 4 4 4 4 5 6 4 4 4 4 5 5 4 3 2 2 2 1 1 0 1 3 2 3 3 5 3 3 3 3 4 3 3 4 5 5 5 6 6 8 8 8 9 11 9 9 8 8 8 8
10 11 10 12 13 12 12 11 10 10 11 11 11 11 9 9 8 8 7 8 7 8 8 7 6 7 7 7 7 6 6 6 5 4 5 5 4 3 4 5 5 4 3 4 5 4 4 4 3 3 2 3 4 4 4 4 4 3 3 3 4 3 3 3 3 3 5 4 5 5 4 5 5 6 8 9 8 10 11 10 10 10 9 8 8
11 10 12 12 13 13 12 11 11 12 13 10 11 11 10 9 8 8 8 8 7 7 8 7 7 7 7 7 7 6 6 6 4 5 5 4 4 4 5 4 4 4 4 5 5 4 3 3 2 1 0 2 3 3 3 3 4 4 4 3 3 3 3 3 2 3 4 5 4 5 4 4 4 7 8 7 9 10 11 10 10 10 8 8 8
10 12 12 13 13 12 11 12 13 12 10 9 11 11 11 9 8 8 8 7 7 6 7 8 7 7 7 7 7 7 6 5 6 6 6 5 5 5 5 4 4 4 4 5 5 3 3 3 2 1 2 3 2 2 3 2 4 4 4 4 3 4 3 3 3 2 3 5 4 5 4 5 4 6 7 7 8 10 9 9 9 10 11 9 9
12 13 14 14 13 12 12 12 12 11 10 10 11 11 10 8 6 7 7 7 8 7 7 7 7 7 7 8 8 7 7 6 7 6 5 4 5 5 5 4 4 4 4 4 5 3 3 2 2 2 2 3 3 4 2 3 4 4 4 4 4 4 3 4 4 3 3 4 4 3 4 4 4 4 6 8 7 8 9 10 10 10 10 10 8
13 13 14 14 13 12 12 12 12 11 12 12 12 11 10 9 7 8 8 8 8 8 8 7 7 8 8 8 7 7 7 7 7 7 6 5 5 4 4 4 4 4 4 4 4 3 3 3 2 3 3 3 3 3 3 3 3 4 4 4 4 4 4 4 4 4 4 4 4 4 4 5 5 4 8 8 8 8 8 9 10 9 9 9 10
13 12 13 13 13 12 12 12 11 11 12 12 10 10 8 7 6 7 7 8 8 8 8 7 6 7 8 8 8 7 7 7 7 6 7 6 5 5 4 4 4 4 3 4 4 3 4 3 4 5 5 5 4 3 4 4 4 4 4 4 3 4 4 4 5 4 4 5 4 4 4 4 4 6 7 8 8 8 9 10 9 9 9 9 10
13 13 13 13 12 12 11 11 11 10 11 11 11 9 8 7 7 8 7 8 8 9 9 8 7 7 7 7 7 7 6 6 7 6 6 5 5 5 4 4 4 3 4 4 4 4 4 5 6 5 5 4 3 3 3 3 4 4 4 3 4 4 4 5 5 5 5 5 3 4 4 4 5 4 6 5 7 7 8 9 11 11 11 10 9
13 13 12 12 12 11 11 10 10 10 12 12 11 9 8 6 4 8 8 7 7 8 8 8 8 7 8 7 8 7 6 6 6 6 6 7 6 5 5 4 4 4 4 4 4 5 6 6 5 4 4 5 5 4 4 3 2 3 3 3 4 4 4 4 5 5 5 5 5 4 5 5 5 6 7 7 9 10 10 9 9 9 10 10 9
12 12 13 12 11 12 11 10 10 11 12 12 11 9 8 7 7 7 8 8 7 7 8 8 7 8 8 8 7 5 5 3 6 12 9 6 6 5 5 4 4 3 4 4 4 5 7 6 5 9 7 5 4 3 3 2 1 1 1 2 2 3 3 3 4 4 5 5 5 5 5 5 5 6 5 6 7 8 9 9 9 9 9 9 9
12 12 12 11 12 12 12 12 11 12 11 11 10 10 9 8 8 8 7 7 7 7 7 8 7 8 8 8 7 6 5 5 11 12 13 12 7 5 4 4 3 3 3 4 4 6 6 6 4 6 5 5 3 4 3 5 5 4 3 2 2 1 1 2 3 3 3 4 5 5 4 5 5 5 5 6 7 8 8 9 9 9 10 11 11
12 12 12 12 12 12 12 12 12 11 11 11 11 9 8 8 8 8 7 7 6 6 7 7 7 7 7 8 7 5 6 9 14 13 12 11 8 7 6 5 3 3 3 3 4 5 6 6 4 4 4 5 4 4 6 7 8 7 7 7 6 5 5 1 0 2 2 3 4 4 4 4 5 5 5 5 6 8 8 8 9 10 10 10 10
12 11 11 11 12 11 12 13 12 11 12 12 10 9 9 9 8 8 7 6 6 7 7 7 7 7 7 8 8 8 7 10 14 13 12 11 9 8 7 5 5 4 3 4 4 5 5 5 4 4 3 7 5 5 6 5 9 10 8 7 7 8 8 8 6 4 2 3 3 5 4 3 5 5 4 5 5 7 8 8 9 9 9 9 10
12 13 14 11 13 13 14 14 13 13 13 12 10 10 9 9 8 7 7 6 6 7 7 7 7 7 8 8 7 8 8 11 14 12 12 9 8 4 3 5 4 5 4 4 4 4 4 4 4 4 4 4 2 3 2 2 4 6 5 5 6 8 10 10 10 10 7 4 4 5 5 3 5 6 7 4 5 7 7 9 9 10 10 10 11
12 13 15 14 14 15 14 13 13 13 13 12 10 10 9 8 8 7 7 7 6 7 7 7 7 7 7 7 7 9 7 12 14 13 11 9 7 3 1 5 4 4 3 3 4 4 5 5 4 4 3 3 2 2 2 3 4 3 4 7 8 7 6 6 6 6 5 7 7 6 7 6 6 7 7 5 5 5 5 8 10 10 10 8 7
12 13 14 15 15 13 13 13 12 12 13 12 11 11 10 9 7 7 7 7 6 5 5 6 7 7 7 9 9 8 6 11 13 13 12 9 5 2 1 5 3 4 3 3 2 2 1 1 2 4 4 4 3 3 2 2 3 4 6 3 3 2 6 7 7 5 4 3 4 5 7 8 10 10 10 9 7 6 6 7 8 7 7 7 8
11 12 12 14 14 14 13 13 13 13 13 13 12 11 9 8 6 6 7 7 7 7 6 6 6 7 8 9 8 8 7 8 12 14 12 10 4 1 2 4 3 4 3 3 3 3 3 2 1 3 5 3 5 5 3 2 2 5 5 3 3 0 3 1 4 8 9 10 12 15 16 17 16 17 16 16 10 5 4 5 6 6 7 8 8
12 11 11 12 14 13 13 13 13 13 12 12 12 10 8 7 6 6 7 7 7 7 6 6 6 6 7 7 7 8 8 8 11 13 12 10 6 3 2 4 5 5 4 4 4 4 4 8 6 2 5 4 5 4 3 2 2 6 4 3 2 1 3 3 4 4 8 11 13 15 16 16 16 16 15 14 14 3 4 5 7 5 7 7 8
14 13 13 12 12 12 12 12 12 12 12 11 10 10 8 8 7 6 5 6 7 6 6 6 6 5 6 7 10 10 8 9 11 13 12 10 7 3 3 4 5 5 5 5 4 4 3 5 7 7 5 5 5 4 4 2 2 6 3 3 2 2 3 4 4 6 6 6 7 8 7 8 7 6 4 5 3 0 3 6 6 5 6 7 7
14 13 12 12 12 11 11 12 12 12 12 11 10 9 7 7 9 8 6 6 6 7 6 6 7 6 7 7 8 8 9 9 10 13 11 11 10 5 3 4 4 6 4 6 5 4 4 3 6 9 9 7 4 3 2 3 2 4 5 3 3 2 3 4 4 4 6 7 8 9 7 4 4 4 3 3 3 3 4 5 4 4 5 6 6
12 13 12 13 13 14 12 12 11 11 10 11 11 10 7 8 10 8 6 6 6 4 6 4 5 5 6 6 8 7 9 10 11 12 12 11 11 8 3 2 2 3 6 5 5 5 5 5 4 8 9 8 5 3 2 2 1 3 5 2 1 1 3 3 6 9 6 8 9 6 4 5 4 4 3 4 4 4 5 4 4 4 5 6 6
12 12 13 13 13 12 11 11 12 10 9 9 6 8 7 8 8 9 5 6 7 7 7 6 7 7 7 7 8 7 11 16 11 13 13 12 11 11 5 3 2 5 3 3 6 4 7 7 6 9 11 9 6 5 3 4 5 4 3 3 5 4 3 4 5 5 6 8 7 5 4 5 4 4 4 5 6 5 4 4 4 5 6 4 5
14 12 12 12 12 11 10 9 9 8 7 7 7 9 8 8 7 7 6 5 7 8 9 7 7 7 7 7 6 7 9 11 17 13 14 13 13 10 10 5 3 4 3 5 5 3 7 8 9 14 12 11 8 7 4 5 4 5 7 7 7 7 5 5 5 5 6 8 6 4 5 4 4 3 4 5 6 4 4 4 5 5 6 6 6
13 12 10 10 9 7 11 9 8 8 9 9 9 9 8 7 7 7 8 6 7 8 9 7 7 7 7 8 7 7 8 9 14 18 14 15 13 12 10 8 4 0 2 3 4 8 5 7 10 16 12 10 9 8 7 5 5 9 9 11 11 8 5 5 6 6 7 6 5 4 5 3 4 3 4 6 6 4 5 4 5 5 5 6 6
12 10 9 8 7 8 10 9 9 10 9 10 10 10 10 10 9 10 9 8 8 7 8 7 7 7 7 8 7 7 8 10 10 14 17 15 14 13 9 7 5 5 1 1 4 5 8 5 16 14 12 10 9 7 5 6 10 11 12 13 10 4 5 6 6 7 4 4 4 4 4 3 3 3 4 5 4 4 4 5 5 5 5 5 5
11 11 10 9 9 10 11 10 10 11 10 9 9 9 10 10 9 9 8 7 8 7 8 8 7 7 7 7 7 7 7 8 9 10 12 12 11 11 9 9 6 6 3 1 1 4 8 6 7 8 7 7 5 3 3 5 9 12 13 12 5 6 5 6 7 4 2 4 5 4 4 4 4 5 5 4 3 4 5 6 6 7 6 6 7
11 9 9 8 9 10 12 10 9 10 9 8 8 8 8 8 8 8 7 7 7 7 7 7 6 6 6 6 7 7 7 8 9 9 9 9 8 7 6 5 6 5 4 3 4 4 6 5 5 8 6 10 8 4 3 5 5 5 5 5 6 7 7 6 7 6 2 3 4 3 4 4 4 4 4 4 3 5 6 5 4 6 6 6 5
10 9 10 9 9 9 10 12 12 8 8 8 8 8 7 8 7 7 8 7 7 7 7 7 7 7 7 7 7 7 8 8 9 9 9 9 9 8 7 5 4 4 4 4 4 6 7 6 7 6 3 4 4 3 4 5 6 6 6 6 6 7 10 12 10 6 4 4 4 2 4 4 4 5 4 3 3 5 5 4 4 6 6 5 4
10 10 9 8 8 8 8 9 9 9 8 8 7 8 8 7 6 6 5 5 5 6 6 6 6 6 6 7 7 8 7 8 8 12 11 12 11 10 9 9 8 6 6 6 4 3 5 6 5 5 4 4 3 4 5 5 6 7 9 8 7 8 8 7 6 5 6 4 1 3 6 4 4 5 4 4 5 5 5 5 4 5 6 4 4
10 10 9 9 8 9 8 9 8 8 9 8 7 4 10 7 5 6 5 3 2 2 3 5 6 5 4 2 4 7 7 7 16 21 18 18 17 18 14 14 13 10 11 12 6 3 3 5 5 5 5 5 5 5 6 6 7 7 8 10 10 7 3 3 0 3 0 1 1 3 6 3 4 5 5 4 5 6 6 4 4 5 4 4 5
8 8 8 8 10 10 9 9 8 9 9 9 7 7 6 8 12 10 6 9 7 5 7 6 6 9 4 2 2 6 10 18 23 19 19 18 20 19 17 17 17 16 14 10 5 5 4 3 5 6 7 6 5 6 8 7 7 5 2 2 3 4 2 3 3 3 2 1 3 5 4 3 5 7 5 4 5 5 5 4 4 6 5 5 4
8 8 7 8 11 10 9 9 8 8 8 8 7 8 8 6 5 10 11 8 7 10 8 8 8 9 11 10 7 4 15 21 20 19 18 18 16 13 13 16 16 16 16 16 8 6 5 5 5 6 6 6 6 9 8 7 6 4 4 4 5 6 6 4 4 3 2 2 3 4 5 5 6 6 4 4 5 6 5 5 5 5 6 4 4
9 9 8 10 10 10 10 9 8 7 8 8 8 8 8 8 8 6 6 9 9 6 8 9 11 11 12 11 13 13 12 14 17 16 15 14 13 12 13 14 14 15 15 10 8 8 7 7 6 5 6 5 6 6 6 6 6 5 5 5 5 6 6 5 4 4 4 6 5 5 5 6 4 3 4 5 5 5 5 5 5 5 5 5 5
9 8 8 11 12 9 9 9 8 8 7 7 8 8 8 7 8 8 7 5 4 5 7 6 8 11 9 11 12 12 13 15 16 16 16 15 14 13 11 7 9 12 12 9 8 7 7 7 6 6 6 6 6 7 7 6 6 6 6 4 4 3 2 2 3 5 6 5 5 7 4 1 2 4 5 5 5 5 5 5 6 5 4 3 4
8 8 13 10 9 9 9 9 8 7 8 9 8 9 7 9 10 10 9 7 6 6 6 2 1 4 7 7 9 12 14 15 15 15 15 14 14 13 12 8 6 2 5 6 8 7 7 6 6 6 5 6 6 6 6 5 6 6 5 5 3 3 3 3 4 5 4 5 4 1 0 3 5 5 6 6 5 6 6 6 6 5 4 4 4
8 8 8 9 7 7 7 8 8 9 9 9 8 8 7 8 9 8 8 8 8 7 5 6 6 3 7 9 11 12 13 13 13 14 14 15 15 15 8 6 5 6 6 6 6 6 6 6 6 6 6 6 6 6 4 4 4 4 4 3 4 5 6 5 4 3 2 0 1 1 2 4 5 6 5 5 8 8 6 5 4 4 4 4 4
7 8 9 8 8 7 6 7 7 8 7 7 7 8 8 7 8 9 10 9 9 9 7 6 7 4 3 2 4 8 9 11 11 12 13 14 15 11 7 7 6 6 6 6 6 6 6 7 6 6 6 5 5 5 4 5 5 5 5 6 6 5 4 3 3 1 1 1 1 2 3 5 6 5 6 7 7 5 5 6 6 5 4 5 5
6 7 9 9 8 8 7 7 7 7 7 6 8 9 9 9 10 9 8 9 10 9 8 7 7 9 8 6 7 5 7 9 11 8 5 3 4 5 6 6 7 7 6 6 7 6 7 6 6 7 7 6 6 5 6 5 3 3 3 3 3 4 6 5 5 5 4 3 4 4 4 6 7 8 7 4 4 5 6 6 4 4 5 6 7
5 7 9 10 7 7 6 7 5 6 6 6 7 7 8 8 6 4 4 6 8 8 8 7 7 9 9 8 7 7 9 6 5 6 6 6 7 7 6 6 7 7 7 7 7 7 7 7 7 7 7 7 7 7 6 6 4 4 5 4 4 3 2 3 4 4 4 4 5 5 6 6 6 4 4 5 5 5 5 4 5 6 6 6 7
8 7 6 7 4 6 5 5 4 5 5 7 7 7 6 7 6 5 6 7 8 8 7 8 7 9 10 10 10 9 9 9 8 8 7 7 6 7 7 7 7 7 7 8 7 7 8 7 7 7 8 8 8 7 7 7 5 5 5 5 5 4 4 4 4 4 4 4 5 5 4 5 6 6 4 4 6 5 5 5 6 6 6 6 6
8 8 9 8 6 4 4 4 5 6 5 5 5 6 7 8 7 6 6 6 6 6 6 6 5 5 11 14 19 16 11 9 9 8 8 8 8 8 8 7 7 7 7 7 7 7 7 7 6 6 6 7 8 8 6 5 4 4 4 4 4 4 3 3 3 4 5 5 4 4 5 6 6 6 6 6 6 6 6 6 6 7 7 7 6
8 7 8 7 8 7 6 5 5 6 5 6 7 7 6 6 6 6 6 7 7 7 6 7 8 7 10 22 20 21 12 9 9 8 8 8 8 8 8 8 7 6 6 7 7 6 6 5 5 5 6 5 6 4 4 5 5 5 4 4 3 3 3 4 4 5 5 5 5 5 5 5 6 5 5 6 5 6 6 7 7 6 6 7 7
8 8 8 8 7 7 7 6 6 6 6 7 7 5 5 6 6 6 6 6 6 6 6 7 9 6 11 19 19 20 11 9 8 9 8 9 9 9 9 8 8 7 7 6 6 5 5 4 4 4 4 4 3 3 4 5 5 4 3 3 3 3 4 4 5 5 5 4 5 5 6 6 5 5 4 5 5 5 6 7 7 7 7 6 5
8 7 7 7 7 7 6 7 7 7 6 7 8 7 6 5 6 5 5 5 6 5 5 4 3 5 7 10 14 12 10 9 9 9 9 8 9 9 9 8 8 7 7 7 7 6 6 5 5 5 4 4 4 5 6 5 5 5 4 4 4 5 5 5 5 6 6 5 5 5 5 6 7 5 5 5 5 6 7 6 6 6 5 5 6
7 8 7 7 7 7 7 6 7 5 6 6 6 6 6 6 6 7 6 5 3 3 5 5 5 5 9 9 9 10 10 9 8 8 9 9 8 9 9 8 8 9 8 8 7 7 7 5 5 5 5 5 6 7 7 5 4 4 4 5 5 5 6 6 6 6 6 6 6 6 6 7 6 5 5 4 5 5 6 6 6 6 6 6 5
6 6 6 6 7 6 6 6 6 6 6 6 5 6 5 6 6 5 5 3 4 4 4 4 3 6 9 9 9 9 9 9 8 7 8 8 8 8 8 9 9 9 8 7 7 8 6 6 5 5 6 6 7 8 6 4 3 3 3 4 5 6 7 7 6 5 6 6 7 7 6 6 5 4 4 4 4 5 5 5 5 5 5 5 6
6 6 6 6 6 6 6 6 7 6 7 7 7 6 5 5 4 4 3 3 3 3 4 4 4 4 7 8 9 9 9 8 7 7 6 6 7 7 6 6 6 6 7 7 7 6 6 6 6 6 6 6 6 6 5 4 4 4 6 6 6 6 3 2 2 4 5 5 7 9 9 5 4 3 4 4 4 4 4 5 5 6 6 5 5
5 6 6 6 6 6 6 6 6 6 6 7 7 7 7 7 7 7 6 5 4 4 4 4 6 6 6 7 8 8 8 8 8 7 7 6 5 5 5 6 5 5 6 8 8 6 6 6 6 6 7 7 6 7 6 5 5 5 6 2 2 3 3 3 2 3 3 3 3 3 2 1 1 1 2 3 4 4 5 6 5 5 5 6 5
7 6 6 5 5 6 5 6 7 7 6 6 6 7 7 7 7 7 7 6 6 6 7 7 7 7 6 5 7 7 7 7 7 6 6 6 5 5 5 6 6 6 5 5 5 8 8 7 5 5 5 5 5 6 6 5 5 4 1 4 3 5 6 6 4 3 4 1 1 1 1 1 1 2 3 3 3 3 3 4 4 4 4 4 5
5 3 4 4 4 4 4 4 5 5 4 5 6 5 5 5 6 6 7 8 8 7 7 6 5 5 6 6 7 7 7 7 7 7 7 5 6 6 6 6 6 7 5 5 5 4 5 5 5 5 5 5 6 5 5 3 0 3 5 3 4 6 6 6 7 7 5 3 3 2 2 1 1 2 2 3 4 4 4 3 3 4 4 5 5
5 3 2 3 2 3 4 4 5 5 6 6 6 6 6 6 7 6 6 6 5 6 6 6 6 6 6 6 6 6 7 6 6 5 5 5 5 5 5 5 5 5 5 4 4 5 5 4 5 5 5 5 4 3 3 6 6 5 5 6 7 7 7 6 4 4 5 4 2 2 1 1 1 2 4 4 2 2 3 4 4 4 4 5 5
Wind_Direction
165 158 144 137 136 144 139 135 142 145 144 145 140 139 138 132 137 139 136 127 128 141 151 151 148 144 139 140 134 130 127 127 126 120 122 114 104 124 129 113 104 102 108 104 97 83 82 92 87 37 6 22 204 175 307 174 155 121 34 53 71 39 30 2 355 319 313 335 323 320 312 359 338 339 337 344 342 344 339 331 338 340 333 328 326
158 146 139 140 141 139 134 137 142 144 146 144 142 140 139 135 143 146 142 141 153 153 150 149 146 144 145 143 143 135 137 134 133 127 115 124 134 121 116 112 109 116 107 86 75 76 79 83 70 55 22 29 10 35 5 4 37 33 67 38 67 24 31 13 337 315 321 326 326 310 329 1 328 345 345 343 343 340 336 338 338 339 331 329 328
148 140 137 138 138 135 138 146 149 151 150 143 140 140 137 143 152 152 149 154 158 154 146 147 150 149 146 144 144 145 139 138 131 118 120 134 133 124 113 116 116 107 109 105 93 93 99 107 106 91 136 96 60 18 360 14 33 26 9 22 46 49 11 353 311 328 324 314 317 322 337 338 340 346 347 346 341 337 333 339 338 332 330 330 333
141 137 138 141 140 140 146 152 154 147 136 137 140 141 144 153 159 156 151 157 147 138 144 156 155 152 149 147 147 145 140 130 124 127 139 136 136 124 112 119 134 135 113 108 114 110 96 102 109 112 61 38 38 80 0 348 73 41 5 1 19 35 355 328 333 314 305 315 318 318 338 337 341 347 344 342 342 335 336 333 336 329 327 333 333
142 141 145 145 147 146 146 150 147 141 139 140 140 141 145 147 154 153 151 155 142 144 155 159 154 153 151 151 148 144 141 136 134 140 133 141 129 128 139 135 129 128 114 108 116 114 128 111 106 75 57 61 24 18 15 14 44 58 22 356 360 21 341 318 312 322 319 313 311 314 349 336 341 340 342 342 337 335 334 338 335 329 326 327 327
143 147 149 145 148 148 147 147 145 144 144 143 144 144 145 151 166 160 162 144 144 155 163 160 160 153 156 151 145 142 144 143 143 140 145 137 133 134 129 128 111 98 107 109 108 107 106 105 83 71 59 60 37 20 356 18 28 42 29 355 3 357 331 322 332 326 327 318 311 332 350 345 343 345 346 341 339 337 335 333 327 326 327 327 325
141 149 149 143 148 151 152 150 144 142 147 146 144 146 148 158 167 145 143 144 154 164 162 156 152 156 156 148 147 148 144 146 143 146 145 143 138 123 118 111 110 123 128 113 107 109 93 72 61 50 53 48 48 20 358 4 20 53 21 6 359 347 338 337 327 336 347 336 327 5 340 337 356 343 340 339 339 343 337 333 329 329 329 329 323
145 149 151 150 151 152 151 147 143 141 143 143 143 144 151 165 168 139 146 153 163 170 161 156 153 161 148 147 148 143 143 142 147 146 144 136 126 125 127 129 136 125 118 127 122 102 94 78 61 62 65 47 41 33 29 16 350 48 12 14 355 355 348 339 341 352 349 335 335 358 340 335 346 337 324 334 340 337 348 335 329 330 332 329 323
149 150 149 150 149 146 146 145 142 142 146 144 141 144 149 154 149 135 150 159 169 165 156 153 162 155 145 147 144 144 147 148 150 153 139 134 135 135 135 134 135 135 126 121 127 116 94 87 87 95 102 113 101 92 73 42 13 30 21 13 3 9 351 348 346 354 346 336 341 349 340 341 342 339 334 347 348 341 331 333 323 324 324 320 316
150 148 149 150 146 144 143 140 143 142 145 144 143 145 149 150 150 152 160 164 168 161 152 157 162 148 152 144 143 145 150 138 147 147 133 141 142 135 132 136 144 140 142 133 124 115 105 104 124 127 134 148 157 136 116 71 32 26 3 15 14 5 2 352 353 348 348 338 338 339 341 335 341 338 333 338 331 327 326 328 328 325 323 316 309
144 147 151 154 153 146 139 140 140 141 146 144 144 147 152 152 154 161 162 166 165 158 150 161 160 152 153 145 143 151 109 109 107 123 139 141 136 128 131 136 142 143 149 141 126 117 123 130 146 157 169 192 193 193 225 224 220 233 235 243 281 317 346 359 352 349 360 334 321 332 333 330 332 325 333 328 327 327 323 326 324 327 330 330 334
146 152 150 154 152 144 143 142 143 141 143 148 149 150 152 153 159 164 161 163 161 149 158 166 153 151 149 143 148 126 113 114 104 100 92 88 97 128 134 145 146 158 151 158 138 136 143 156 167 169 191 203 205 197 218 236 240 234 230 229 233 253 249 247 307 338 352 323 317 317 326 331 313 317 312 321 317 318 318 325 325 328 324 325 327
148 146 151 152 149 148 158 158 152 144 148 150 150 150 156 159 161 162 160 163 154 157 166 164 152 154 147 149 147 122 131 122 114 110 102 101 100 124 150 160 150 152 168 165 166 149 156 165 157 181 182 192 216 189 193 222 238 236 232 234 240 229 243 254 247 232 275 296 300 303 304 306 302 296 295 298 310 309 316 320 324 322 317 318 324
149 152 162 162 161 164 165 163 153 148 150 153 155 157 161 164 165 166 155 160 161 164 168 163 155 155 154 151 143 130 136 137 127 120 108 93 87 77 160 149 166 169 166 176 158 154 158 162 168 181 157 202 68 26 349 257 225 223 217 224 226 232 233 239 243 249 237 237 260 266 281 281 275 272 284 290 306 306 310 310 315 317 315 319 315
155 160 165 168 167 166 164 156 145 146 153 158 163 164 166 168 177 160 158 166 166 172 169 166 159 156 153 146 117 135 145 145 135 132 123 113 103 95 123 163 188 161 161 133 150 170 170 178 183 175 147 97 73 55 353 338 324 300 227 205 218 220 206 212 229 234 226 219 227 245 267 270 267 273 276 288 282 282 298 298 299 297 296 305 311
145 157 164 167 169 166 156 149 147 152 156 162 166 168 167 177 183 160 161 166 167 169 171 164 159 160 139 114 131 136 143 151 143 146 138 127 125 145 210 174 142 135 131 144 166 186 180 203 149 137 124 114 117 99 58 337 307 296 285 261 266 200 175 205 200 212 228 237 247 256 258 264 271 279 280 281 288 290 296 297 293 289 312 330 328
148 155 163 164 166 165 156 149 152 158 161 164 170 168 169 181 177 162 158 162 170 176 175 167 160 163 137 135 135 138 147 171 159 158 147 140 138 173 237 152 148 143 159 170 165 165 189 200 219 153 128 126 136 135 96 24 321 300 279 284 263 341 79 43 290 260 251 246 253 262 266 270 275 277 280 281 273 269 292 296 303 324 333 335 326
158 161 167 164 162 160 154 155 158 161 164 169 175 168 172 180 170 158 165 167 173 181 171 166 163 151 135 141 143 141 158 175 176 167 154 155 167 181 228 169 163 156 165 176 188 174 107 91 54 359 130 136 143 113 51 14 322 289 282 296 288 56 47 8 336 300 255 246 256 262 267 270 269 271 276 277 279 248 187 311 316 330 337 330 328
168 170 169 162 156 154 155 157 160 158 163 169 174 172 182 172 158 149 172 175 173 177 174 163 150 143 140 148 145 147 162 174 184 175 164 166 174 206 236 200 161 165 161 173 216 148 130 93 77 68 92 125 128 106 57 33 324 303 319 294 328 46 31 353 320 320 319 319 303 292 285 264 253 248 252 252 300 160 306 311 309 345 334 326 324
173 168 161 157 156 157 158 158 162 167 167 172 174 182 182 157 149 162 175 180 166 181 165 168 162 164 150 158 162 159 161 171 184 181 173 173 186 201 219 275 170 166 171 166 211 146 139 134 119 115 121 132 117 109 34 81 344 313 319 339 16 345 2 333 298 290 297 289 288 279 275 299 314 335 349 6 340 323 302 302 309 336 329 318 324
166 161 158 160 161 162 168 165 165 162 173 173 172 174 167 147 151 157 158 165 163 160 146 166 160 156 162 173 172 170 160 168 180 183 183 184 193 201 231 272 323 171 180 158 201 157 163 169 166 148 147 149 146 163 279 300 291 303 304 358 36 283 329 307 300 307 296 292 274 277 314 324 326 331 360 353 324 303 309 305 327 331 320 315 319
163 159 163 166 171 163 171 170 168 159 158 165 153 135 118 125 136 150 166 167 161 155 163 178 173 174 170 186 173 182 157 166 173 187 189 195 197 201 215 219 90 24 347 198 184 193 171 178 167 168 159 158 165 171 236 281 299 303 296 304 298 323 302 288 289 292 294 282 294 309 324 318 332 337 351 338 313 312 314 328 331 322 312 300 302
157 161 163 168 175 171 159 131 133 132 144 140 134 132 130 129 126 125 144 161 163 161 180 184 175 176 168 191 173 180 155 167 169 178 192 195 204 203 213 228 318 26 21 350 326 260 191 172 158 160 163 166 172 185 207 247 294 267 281 299 296 301 306 281 282 285 285 280 293 312 315 311 337 334 346 321 307 317 331 334 327 317 313 307 305
156 155 163 163 185 157 129 126 119 117 122 128 131 124 131 130 140 151 172 176 169 170 185 178 176 179 179 182 179 180 153 168 172 176 184 194 204 208 206 219 264 344 14 339 343 358 327 140 153 155 160 174 176 186 201 221 241 272 283 281 288 298 287 291 278 273 262 282 307 310 306 315 330 331 326 304 303 317 335 326 321 315 310 312 308
162 149 131 122 119 116 118 125 125 132 138 138 138 147 151 160 162 175 184 179 176 178 179 183 183 180 189 177 184 178 165 161 170 179 179 188 198 206 202 190 180 149 141 215 18 6 1 117 138 152 162 174 182 177 204 240 248 255 264 270 278 281 280 272 276 264 288 309 303 296 300 324 311 307 302 297 309 342 341 318 318 314 311 309 310
117 126 128 130 131 129 128 130 135 141 147 154 156 160 163 168 170 173 178 180 178 183 174 187 190 186 186 179 183 175 176 143 164 171 180 181 191 202 190 182 182 162 140 313 320 30 53 84 122 142 160 164 167 185 210 227 238 241 250 257 262 260 263 272 271 275 306 304 292 293 314 312 320 309 295 306 353 351 330 317 329 326 327 330 337
117 114 120 123 136 140 140 144 145 150 156 156 159 159 161 166 168 172 178 179 177 181 179 187 188 193 183 181 186 177 181 152 153 162 170 173 185 176 177 189 185 161 169 195 170 171 145 168 179 194 183 191 191 210 239 269 279 260 241 239 238 240 247 244 256 249 252 280 285 318 318 298 299 315 319 322 351 344 320 308 326 315 317 319 333
127 131 134 142 149 152 151 146 148 153 156 154 156 161 159 172 175 177 183 179 180 180 187 192 193 194 190 182 184 183 179 176 156 161 165 171 176 180 186 189 193 200 198 198 204 176 166 195 196 197 168 169 206 215 233 235 242 247 247 238 231 228 231 241 259 276 274 261 276 310 310 309 321 305 308 338 341 318 308 309 321 313 311 317 346
143 143 143 143 148 151 148 152 156 157 157 165 164 168 172 174 172 176 181 181 181 187 193 197 195 199 207 190 183 178 172 183 168 145 167 171 175 178 182 192 189 190 198 198 218 204 169 175 197 195 198 206 208 225 224 229 231 232 238 241 242 219 209 216 213 214 216 205 271 323 285 293 305 303 314 325 314 304 301 307 310 314 307 321 330
150 150 153 152 149 152 156 158 159 163 164 166 162 76 30 79 135 149 123 101 71 44 149 195 211 184 175 192 162 163 190 191 134 149 166 175 179 184 184 174 182 185 181 191 201 231 214 188 192 191 206 206 214 224 232 232 234 230 234 236 239 238 235 251 84 284 163 118 257 268 274 293 303 299 297 299 302 305 299 311 313 307 310 319 328
154 154 157 156 155 157 157 162 164 167 169 172 167 133 129 68 51 58 113 149 108 88 85 79 110 130 177 132 357 165 146 133 145 159 168 174 180 185 180 174 177 181 175 165 185 207 249 236 216 206 204 211 214 220 227 233 243 241 247 280 291 268 234 214 219 228 183 206 258 257 260 278 273 273 278 283 294 297 302 306 306 310 305 311 332
168 171 167 148 150 156 161 161 162 164 171 176 169 156 144 126 87 49 62 97 133 129 106 94 97 112 120 124 123 95 138 146 153 162 166 170 177 179 178 172 176 173 174 162 170 197 211 223 224 218 216 215 222 226 222 222 223 216 219 220 231 238 241 236 228 209 190 219 250 273 264 262 262 266 276 294 297 295 297 302 307 307 303 314 322
174 171 166 149 155 155 161 167 169 167 172 168 169 167 161 157 141 125 57 58 59 68 107 113 112 118 126 135 140 146 156 154 151 147 150 149 150 156 156 155 159 160 152 160 179 189 205 213 220 225 234 239 233 226 224 221 220 220 233 233 233 237 217 226 204 183 189 219 221 240 252 250 250 281 306 293 287 288 290 293 292 293 294 314 317
174 175 160 154 158 158 163 171 174 173 173 165 173 177 172 161 154 150 147 147 117 79 49 57 118 120 118 136 140 140 144 146 146 148 147 146 141 139 131 133 140 155 160 172 173 191 196 207 214 227 235 236 231 229 225 211 208 214 212 215 233 240 239 264 221 209 221 223 220 232 239 269 319 313 287 275 267 264 277 278 275 277 290 296 306
174 148 145 157 163 162 162 166 170 171 175 185 182 185 174 155 160 167 172 162 169 169 154 121 10 125 130 127 136 140 145 146 147 148 145 141 138 132 119 124 135 146 176 182 183 190 195 196 213 227 243 252 248 222 211 211 211 208 202 215 232 245 249 245 234 233 216 217 206 199 323 321 293 275 262 266 275 281 270 271 279 269 273 298 295
160 129 143 151 161 166 166 166 171 176 183 187 183 174 168 157 162 169 173 168 177 182 176 164 158 210 152 145 149 142 139 142 145 148 148 147 147 142 150 172 176 187 186 184 186 191 198 209 215 229 237 248 257 243 224 230 227 212 194 205 237 250 243 238 248 260 294 222 143 311 328 291 272 269 276 288 273 262 254 250 253 268 280 278 276
163 152 157 162 162 168 172 171 173 181 179 177 163 169 176 180 177 177 177 177 178 184 185 167 132 109 78 109 133 121 129 135 143 150 159 161 166 168 181 177 191 188 192 193 192 199 204 217 220 232 243 253 266 269 247 232 218 201 196 202 210 212 223 243 258 153 149 241 272 260 265 270 268 271 276 262 266 279 289 289 282 274 273 276 279
162 157 162 157 154 158 168 188 182 165 167 160 172 181 188 193 198 198 184 171 167 165 162 180 168 151 160 160 168 153 110 101 97 86 94 141 183 199 198 198 197 198 197 200 198 204 215 221 228 234 243 250 256 257 261 243 208 205 208 220 225 225 234 236 232 203 203 199 226 247 260 266 276 268 251 261 286 292 287 283 286 298 299 292 280
119 118 141 162 156 159 168 178 157 150 160 173 180 183 192 203 195 188 145 102 137 149 163 196 192 167 178 155 152 137 128 140 165 174 176 182 189 199 207 206 203 205 202 204 205 207 215 218 221 228 237 243 246 250 248 241 225 221 221 221 223 225 228 232 231 234 237 244 246 248 247 249 250 269 288 292 284 276 272 282 295 293 289 284 282
145 138 141 142 115 137 145 160 145 168 164 179 185 181 170 185 183 157 151 155 158 171 183 200 196 177 173 159 159 154 174 172 185 181 182 181 188 197 203 207 203 202 199 203 207 211 214 220 216 216 223 230 240 243 237 226 218 216 216 211 214 225 226 224 235 236 237 239 238 245 260 282 286 270 268 278 269 270 285 290 280 275 269 265 263
137 141 149 156 141 129 124 134 152 174 169 162 151 160 180 182 180 165 170 173 171 175 187 194 221 201 178 171 166 173 181 186 185 188 185 186 188 193 199 207 206 205 204 207 210 215 216 219 221 220 220 224 230 236 234 226 231 216 205 196 190 202 214 227 231 245 245 243 241 258 269 267 261 258 262 257 263 276 280 275 270 264 261 260 269
126 134 147 149 145 156 156 160 165 164 160 156 174 188 179 173 182 186 170 179 182 191 182 191 199 238 156 164 168 176 185 196 190 190 185 187 190 195 199 207 212 209 205 206 210 216 222 223 224 220 222 227 228 232 230 229 231 229 207 193 196 208 225 242 245 249 252 251 251 246 244 249 254 252 248 254 271 273 270 262 257 261 271 276 271
132 142 149 155 160 171 158 166 165 168 172 177 182 177 169 172 186 192 180 189 188 205 214 191 197 196 158 166 169 178 190 198 195 196 194 190 194 195 199 205 209 211 213 214 216 217 223 231 238 248 254 258 254 247 233 227 207 186 180 188 202 217 236 248 254 254 251 255 262 269 266 259 257 259 266 266 263 263 260 266 273 273 263 262 269
128 136 146 153 166 173 171 173 175 172 180 178 175 177 177 171 179 193 195 193 215 200 180 151 177 131 137 166 169 176 192 195 198 200 202 195 194 197 200 202 207 212 213 215 217 215 218 219 221 227 236 249 260 268 257 227 196 190 196 203 220 231 236 236 237 240 240 243 250 254 264 269 266 261 268 275 273 271 270 266 262 266 277 285 294
139 140 148 159 170 171 176 180 195 167 138 150 166 169 172 163 168 188 195 197 189 183 173 179 201 141 144 163 174 183 200 204 200 195 202 202 193 193 197 199 205 211 213 212 211 213 214 214 212 209 215 224 231 240 247 235 204 190 191 203 218 231 229 228 226 224 221 228 237 246 244 240 248 254 263 276 280 281 284 285 286 296 304 305 308
136 147 155 164 167 170 172 174 169 162 158 164 159 158 164 161 170 172 174 186 192 186 172 179 166 136 156 165 182 190 200 207 211 205 199 199 201 200 191 199 200 203 203 202 206 208 208 209 207 210 214 220 225 227 236 240 234 225 223 217 221 223 226 227 227 230 238 240 244 237 241 243 245 245 260 275 296 301 300 314 330 331 328 319 309
150 152 165 166 174 173 176 163 168 169 168 172 176 176 171 171 167 177 172 175 174 180 180 190 204 163 163 172 181 192 199 205 211 214 213 207 198 193 182 183 186 193 194 198 199 204 206 212 213 212 215 213 214 218 222 231 241 242 242 238 238 258 282 306 269 242 247 257 250 241 226 214 234 262 282 290 297 317 335 326 320 308 300 299 309
150 147 162 169 177 175 177 170 165 160 173 172 179 180 182 181 177 183 185 182 190 184 189 187 197 201 187 185 186 189 192 201 207 209 210 212 197 177 174 181 191 198 205 205 205 204 205 206 208 205 202 203 207 214 220 226 237 244 248 291 31 39 11 332 347 31 26 347 19 57 73 60 1 335 330 326 316 310 310 298 297 299 303 304 304
144 160 157 170 179 178 177 176 167 173 178 169 172 177 181 183 184 183 187 188 194 202 200 203 201 199 204 175 176 184 191 200 206 210 215 209 181 182 189 196 201 210 207 204 201 202 204 202 200 201 203 204 205 210 219 221 228 248 356 65 40 22 39 41 46 15 326 329 21 37 44 20 312 288 290 290 285 284 284 287 291 306 328 342 338
148 157 147 148 172 181 174 163 154 165 167 159 169 171 173 177 187 189 196 199 198 192 194 188 188 190 196 185 171 182 188 194 200 206 205 183 176 187 196 200 206 211 212 212 210 201 202 203 198 202 207 208 202 206 203 212 281 56 68 60 56 52 46 62 60 28 12 17 12 20 23 21 356 341 327 322 314 308 301 322 15 5 346 336 319
126 113 120 125 177 176 170 157 149 163 164 166 167 175 178 191 196 190 187 186 176 184 189 197 203 205 205 202 190 175 179 181 183 175 169 170 180 188 194 200 205 208 222 224 224 217 212 212 211 198 193 190 178 130 77 67 62 76 80 77 62 57 46 39 45 29 27 3 357 13 354 353 319 310 298 290 305 334 33 34 7 0 344 323 313